Date,TemperatureHighF,TemperatureAvgF,TemperatureLowF,DewpointHighF,DewpointAvgF,DewpointLowF,HumidityHigh,HumidityAvg,HumidityLow,PressureMaxIn,PressureMinIn,WindSpeedMaxMPH,WindSpeedAvgMPH,GustSpeedMaxMPH,PrecipitationSumIn
2013-5-1,72.6,54.6,35.0,0.0,0.0,0.0,0,0,100,0.00,0.00,9,3,12,0.00
2013-5-2,75.8,58.7,42.3,0.0,0.0,0.0,0,0,100,0.00,0.00,12,3,15,0.00
2013-5-3,79.5,62.0,45.7,0.0,0.0,0.0,0,0,100,0.00,0.00,17,4,19,0.00
2013-5-4,84.7,67.5,49.5,0.0,0.0,0.0,0,0,100,0.00,0.00,14,4,20,0.00
2013-5-5,89.6,71.0,50.7,0.0,0.0,0.0,0,0,100,0.00,0.00,10,3,11,0.00
2013-5-6,96.8,72.6,49.4,0.0,0.0,0.0,0,0,100,0.00,0.00,8,2,10,0.00
2013-5-7,85.4,64.3,51.6,0.0,0.0,0.0,0,0,100,0.00,0.00,8,2,12,0.00
2013-5-8,78.6,60.5,51.0,0.0,0.0,0.0,0,0,100,0.00,0.00,12,2,14,0.00
2013-5-9,80.3,60.6,47.2,0.0,0.0,0.0,0,0,100,0.00,0.00,7,2,9,0.00
2013-5-10,88.1,66.6,46.4,0.0,0.0,0.0,0,0,100,0.00,0.00,7,2,9,0.00
2013-5-11,94.3,70.8,53.5,0.0,0.0,0.0,0,0,100,0.00,0.00,6,2,8,0.00
2013-5-12,84.1,65.3,57.2,0.0,0.0,0.0,0,0,100,0.00,0.00,9,3,12,0.00
2013-5-13,77.1,58.8,47.6,0.0,0.0,0.0,0,0,100,0.00,0.00,17,4,21,0.00
2013-5-14,78.9,59.2,45.2,0.0,0.0,0.0,0,0,100,0.00,0.00,9,2,10,0.00
2013-5-15,77.4,57.2,45.3,0.0,0.0,0.0,0,0,100,0.00,0.00,10,2,10,0.00
2013-5-16,81.4,64.8,52.4,0.0,0.0,0.0,0,0,100,0.00,0.00,8,3,11,0.00
2013-5-17,73.4,59.5,51.7,0.0,0.0,0.0,0,0,100,0.00,0.00,9,3,11,0.00
2013-5-18,78.5,60.2,50.3,0.0,0.0,0.0,0,0,100,0.00,0.00,9,2,10,0.00
2013-5-19,74.9,60.3,52.9,0.0,0.0,0.0,0,0,100,0.00,0.00,10,3,11,0.00
2013-5-20,81.9,60.5,45.0,0.0,0.0,0.0,0,0,100,0.00,0.00,9,2,10,0.00
2013-5-21,69.2,52.2,44.8,0.0,0.0,0.0,0,0,100,0.00,0.00,10,3,10,0.00
2013-5-22,64.3,49.3,43.7,0.0,0.0,0.0,0,0,100,0.00,0.00,10,3,11,0.00
2013-5-23,68.7,51.1,43.0,0.0,0.0,0.0,0,0,100,0.00,0.00,10,2,12,0.00
2013-5-24,74.3,57.4,45.7,0.0,0.0,0.0,0,0,100,0.00,0.00,8,2,10,0.00
2013-5-25,75.7,59.1,50.1,0.0,0.0,0.0,0,0,100,0.00,0.00,7,2,8,0.00
2013-5-26,75.3,58.3,49.1,0.0,0.0,0.0,0,0,100,0.00,0.00,8,2,10,0.00
2013-5-27,63.7,55.9,49.5,0.0,0.0,0.0,0,0,100,0.00,0.00,8,2,10,0.00
2013-5-28,74.2,58.6,50.5,0.0,0.0,0.0,0,0,100,0.00,0.00,10,3,12,0.00
2013-5-29,71.3,56.5,48.1,0.0,0.0,0.0,0,0,100,0.00,0.00,13,2,17,0.00
2013-5-30,72.5,57.6,48.0,0.0,0.0,0.0,0,0,100,0.00,0.00,11,4,14,0.00
2013-5-31,77.7,62.1,49.2,0.0,0.0,0.0,0,0,100,0.00,0.00,8,2,10,0.00